C/2004 S1 (Van Ness)

T 2004 Dec. 9.08822 TT                                  Nakano

q   0.6786463            (2000.0)            P               Q

z  +0.0087337      Peri.   93.21042     +0.08355423     -0.95050812

 +/-0.0012282      Node    19.20684     -0.73750465     -0.26093971

e   0.9940729      Incl.  114.54382     +0.67015340     -0.16865582

From 117 observations 2004 Sept. 26-Oct. 22.

Residuals in seconds of arc 

2004/                     041003 A13 (3.3-  2.4-)   041011 A32  1.4-  1.5+  

040926 699  0.5+  1.9+    041003 A13 (3.1-  1.9-)   041011 J78  0.8+  1.1+  

040926 699  2.3-  1.2+    041004 A13 (2.7-  3.3-)   041011 A32  0.2+  0.5+  

040926 699  0.7+  0.5+    041004 A13  2.3-  2.0-    041012 785  1.3-  1.5-  

040926 699  1.2+  0.8+    041004 A13  1.5-  2.1-    041012 785  1.9+  0.7-  

040926 A13 (1.5+  2.7-)   041004 A13  0.8-  1.8-    041012 415  0.6-  0.1-  

040926 A13  0.8+  0.1+    041004 A13 (2.6-  2.6-)   041012 415  0.4+  0.6+  

040926 A13  0.2+  1.1-    041005 D74 (2.6-  4.9-)   041012 415  0.7-  0.8+  

040926 A13  0.9+  0.1-    041005 D74 (7.4-  0.5+)   041012 360  2.0-  2.1+  

040927 854  0.6-  1.7+    041005 D74  1.2-  1.4-    041012 415  1.1+  1.8-  

040927 854  1.0+  1.2+    041006 D74 (2.3-  5.8-)   041012 415  1.9-  0.8+  

040927 854  0.6+  1.1+    041006 D74 (0.6+  3.2-)   041012 360  1.4-  2.2+  

040927 854  1.5+  0.6+    041006 D74  1.7-  2.0-    041012 360 (2.8-  2.1+) 

040927 854  0.2+  1.0+    041006 360 (0.7-  2.7-)   041012 246  0.2+  0.7+  

040927 699  0.7+  0.6+    041006 360  0.0   1.1-    041012 246  0.4-  0.7+  

040927 699  0.4-  0.2+    041006 360 (0.6-  2.7-)   041012 246  0.5+  0.3+  

040927 699  1.8-  2.1+    041006 360  0.6-  1.8-    041012 246  1.1-  0.9+  

040927 854  0.6+  0.5+    041007 349  0.0   1.6-    041012 246  0.1+  1.1+  

040927 699  0.0   0.3+    041007 349  0.2-  1.8-    041012 246  0.1+  0.3+  

040928 673  1.7+  1.4+    041007 349  0.9+  0.8-    041012 246  0.4+  1.1+  

040928 854  0.9-  0.2+    041007 349  0.8+  1.0-    041012 246  0.8+  0.4-  

040928 854  0.1-  0.4+    041007 349  0.4+  1.0-    041012 246  0.3-  0.7+  

040928 673 (4.5+  0.6-)   041008 415  2.2+  1.0-    041012 246  0.4-  1.6+  

040928 854  1.3+  0.2+    041008 415  0.2+  0.5-    041012 246  1.0-  0.9+  

040928 673 (3.3+  0.6+)   041008 415  1.9+  1.0-    041012 246  0.6+  0.3+  

040928 673 (2.8+  0.6+)   041008 415  2.1+  0.8+    041013 A33  0.5-  0.9+  

040928 673 (3.5+  0.2-)   041008 176  1.0+  0.1-    041015 415 (3.0+  1.9-) 

040928 673 (2.6+  0.5+)   041008 176  1.2+  0.4-    041015 415  0.6+  0.8-  

040928 474 (3.1+  0.9+)   041008 176  1.1+  0.4-    041015 415 (4.6+  0.7-) 

040928 474  1.8-  0.4+    041008 176  1.4+  0.6-    041015 213  1.7+  0.9-  

040929 213  1.9+  0.3-    041009 415  0.1+  0.6+    041015 213  1.1+  0.0   

040929 213  2.1+  0.5+    041009 415  1.1+  2.2+    041015 213 (3.3+  2.1-) 

040929 213  1.5+  0.3+    041009 415 (3.0+  2.6+)   041015 213 (3.4+  2.2-) 

041003 104 (3.0-  2.2-)   041009 415  0.3+  0.7+    041015 J78  2.1+  0.9-  

041003 104  0.1-  1.9-    041010 213  0.1+  1.9+    041016 D70  0.4-  0.6-  

041003 104  1.6-  1.2-    041010 213  0.0   2.2+    041016 D70 (3.9-  0.3+) 

041003 104 (3.8-  1.6-)   041010 213  0.1-  1.9+    041017 349  0.9-  0.9+  

041003 246  0.8-  1.0-    041010 J78 (2.6+  1.8+)   041017 349  1.5-  1.9+  

041003 246  0.7-  1.4-    041011 900  2.0+  0.9-    041017 349  1.8-  1.1+  

041003 246  1.5-  1.6-    041011 900 (6.2+  1.8-)   041018 246  0.9-  0.9-  

041003 246  2.0-  1.2-    041011 952  0.3-  1.8+    041018 246  0.4+  1.2-  

041003 246  1.3-  1.4-    041011 952  0.5-  1.8+    041018 246  1.3-  0.0   

041003 246  1.3-  1.8-    041011 952  0.4-  1.9+    041018 246  1.7-  1.4-  

041003 213  1.6-  2.2-    041011 952  0.3-  1.7+    041018 246  0.0   0.3-  

041003 213  1.7-  2.3-    041011 952  0.3-  1.8+    041020 213  1.4+  1.8-  

041003 213 (1.4-  2.5-)   041011 952  0.2-  1.8+    041020 213  0.3+  1.4-  

041003 213  1.0-  2.4-    041011 952  0.3-  1.9+    041020 213  0.9+  1.3-  

041003 A13 (7.1-  4.7-)   041011 A32  1.8+  0.7-    041021 A18  1.7+  1.9-  

041003 A13  2.1-  1.7-    041011 A32  0.3+  0.6-    041022 213  2.2+  1.7-  

041003 A13 (3.6-  1.6-)   041011 A32  0.0   0.1+                            



NAKANO

         **** Don't distribute anyone except personal use only ****

                (C) Copyright 2005 OAA/ComputingSection

write mail from CFAD0::NAKANO on 2005-11-03 23:34:28(JST).

 



    C/2004 S1 (Van Ness)                                                  

T 2004 Dec. 8.92084 TT                                  Nakano

q   0.6817562            (2000.0)            P               Q

                   Peri.   92.81738     +0.09080291     -0.94987473

                   Node    19.21968     -0.73700685     -0.26612255

e   1.0            Incl.  114.66629     +0.66975796     -0.16406338

From 93 observations 2004 Sept. 26-Oct. 17.



NAKANO

         **** Don't distribute anyone except personal use only ****

                (C) Copyright 2004 OAA/ComputingSection

write mail from CFAD0::NAKANO on 2004-11-03 02:43:59(JST).

 



◎C/2004 S1の軌道と予報位置です



 那賀川の堀寿夫氏と前野拓氏から10月5日と6日の観測が報告されました.

彗星は,16等級でしょう.なお,彗星の動きが速いので,時刻と位置の測定

は慎重に行なってください.

 山本速報No.2441の軌道からは,4’以上のずれがありました.これは,最

終観測(9月28日)が悪かったことによります.悪い観測は,良い軌道を導き

ません.くれぐれも,慎重に...



    C/2004 S1 (Van Ness)                                                  

T 2004 Dec. 8.92140 TT                                  Nakano

q   0.6817590            (2000.0)            P               Q

                   Peri.   92.81740     +0.09082264     -0.94987586

                   Node    19.21966     -0.73704910     -0.26611988

e   1.0            Incl.  114.67018     +0.66970880     -0.16406114

From 44 observations 2004 Sept. 26-Oct. 6.



Date/        TT  R.A.(2000) Decl.     Delta   r     Daily motion  Mag.  Moon Age

              h    h  m       。  ,                      ,  / PA 。  m1      。

2004 Oct.  5 14  01 59.05  +16 06.4   0.422  1.402   197.2 / 287  17.1   60  .58

           6 14  01 45.94  +17 04.1   0.402  1.388   217.5 / 286  16.9   74  .49

           7 14  01 31.31  +18 03.6   0.384  1.373   238.7 / 285  16.8   89  .39

           8 14  01 15.06  +19 03.8   0.367  1.358   260.2 / 284  16.7  103  .30

           9 14  00 57.14  +20 02.7   0.352  1.343   280.9 / 282  16.5  118  .21

          10 14  00 37.53  +20 58.3   0.340  1.329   299.7 / 280  16.4  133  .14

          11 14  00 16.37  +21 47.8   0.330  1.314   315.1 / 278  16.3  146  .07

          12 14  23 53.88  +22 28.4   0.323  1.299   325.7 / 276  16.2  155  .03

          13 14  23 30.43  +22 57.7   0.318  1.285   330.5 / 274  16.1  152  .00

          14 14  23 06.50  +23 13.7   0.317  1.270   328.9 / 272  16.0  141  .00

          15 14  22 42.63  +23 15.9   0.319  1.255   321.2 / 269  16.0  125  .03

          16 14  22 19.35  +23 04.8   0.324  1.240   308.2 / 267  16.0  109  .08

          17 14  21 57.11  +22 41.8   0.331  1.226   291.2 / 265  16.0   92  .15

          18 14  21 36.23  +22 09.4   0.341  1.211   271.6 / 263  16.0   77  .24

          19 14  21 16.93  +21 30.1   0.354  1.197   250.7 / 261  16.0   62  .35

          20 14  20 59.28  +20 46.4   0.368  1.182   229.8 / 259  16.1   51  .46

          21 14  20 43.27  +20 00.4   0.384  1.167   209.4 / 258  16.1   44  .58

          22 14  20 28.82  +19 13.6   0.402  1.153   190.3 / 256  16.1   42  .68

          23 14  20 15.82  +18 27.4   0.421  1.139   172.6 / 255  16.2   47  .78

          24 14  20 04.13  +17 42.6   0.441  1.124   156.6 / 254  16.2   55  .87

          25 14  19 53.61  +16 59.7   0.462  1.110   142.1 / 254  16.3   66  .93

          26 14  19 44.14  +16 18.9   0.484  1.095   129.2 / 253  16.3   78  .97

          27 14  19 35.58  +15 40.5   0.506  1.081   117.7 / 252  16.4   89 1.00

          28 14  19 27.84  +15 04.4   0.529  1.067   107.4 / 252  16.4  101 1.00

          29 14  19 20.81  +14 30.6   0.553  1.053    98.4 / 251  16.4  112  .98

          30 14  19 14.40  +13 58.9   0.577  1.039    90.3 / 251  16.5  121  .94

          31 14  19 08.55  +13 29.3   0.601  1.025    83.2 / 251  16.5  130  .89

     Nov.  1 14  19 03.17  +13 01.5   0.625  1.011    76.9 / 250  16.5  136  .82

NAKANO

         **** Don't distribute anyone except personal use only ****

                (C) Copyright 2004 OAA/ComputingSection

write mail from CFAD0::NAKANO on 2004-10-07 06:09:35(JST).

 



    C/2004 S1 (Van Ness)                                                  

T 2004 Dec. 9.11984 TT                                  Nakano

q   0.6873694            (2000.0)            P               Q

                   Peri.   92.46481     +0.09683670     -0.94906902

                   Node    19.26088     -0.73507866     -0.27128800

e   1.0            Incl.  114.64665     +0.67103056     -0.16022118

From 19 observations 2004 Sept.26-28.



NAKANO

         **** Don't distribute anyone except personal use only ****

                (C) Copyright 2004 OAA/ComputingSection

write mail from CFAD0::NAKANO on 2004-10-04 01:08:29(JST).

 

戻ります。